Weather History for Albert Lea, MN

Change the Weather History Date:

Saturday, August 31, 2013

  Actual Average Record
Temperature  
Mean Temperature 73 °F -  
Max Temperature 84 °F 75 °F 86 °F (2012)
Min Temperature 62 °F 55 °F 33 °F (1999)
Cooling Degree Days 8    
Growing Degree Days 23 (Base 50)    
Moisture  
Dew Point 66 °F    
Average Humidity 81    
Maximum Humidity 100    
Minimum Humidity 55    
Precipitation  
Precipitation 0.00 in - - ()
Sea Level Pressure  
Sea Level Pressure 29.86 in    
Wind  
Wind Speed 3 mph (SE)    
Max Wind Speed 9 mph    
Max Gust Speed -    
Visibility 10 miles    
Events      
Averages and records for this station are not official NWS values.
T = Trace of Precipitation, MM = Missing Value Source: NWS Daily Summary

Daily Weather History Graph

Daily Weather History Graph

Search for Another Location

Airport:

Trip Planner

Search our weather history database for the weather conditions in past years. The results will help you decide how hot, cold, wet, or windy it might be!

Date:

Astronomy

Aug. 31, 2013 Rise Set
Actual Time 6:36 AM CDT 7:50 PM CDT
Civil Twilight 6:06 AM CDT 8:19 PM CDT
Nautical Twilight 5:31 AM CDT 8:55 PM CDT
Astronomical Twilight 4:53 AM CDT 9:32 PM CDT
Moon 2:00 AM CDT (8/31) 4:53 PM CDT (8/31)
Length of Visible Light 14h 13m
Length of Day
13h 13m
Waning Crescent, 21% of the Moon is Illuminated
Aug 31
Waning Crescent
Sep 5
New
Sep 12
First Quarter
Sep 19
Full
Sep 26
Last Quarter

Hourly Weather History & Observations

Time (CDT) Temp. Heat Index Dew Point Humidity Pressure Visibility Wind Dir Wind Speed Gust Speed Precip Events Conditions
12:12 AM 66.2 °F - 64.4 °F 94% 29.88 in 10.0 mi Calm Calm - N/A   Clear
12:32 AM 66.2 °F - 64.4 °F 94% 29.89 in 10.0 mi Calm Calm - N/A   Clear
12:52 AM 66.2 °F - 64.4 °F 94% 29.89 in 10.0 mi North 3.5 mph - N/A   Clear
1:12 AM 66.2 °F - 64.4 °F 94% 29.89 in 10.0 mi Calm Calm - N/A   Clear
1:32 AM 64.4 °F - 62.6 °F 94% 29.89 in 10.0 mi North 3.5 mph - N/A   Clear
1:52 AM 64.4 °F - 62.6 °F 94% 29.88 in 10.0 mi North 3.5 mph - N/A   Clear
2:12 AM 64.4 °F - 62.6 °F 94% 29.88 in 10.0 mi North 4.6 mph - N/A   Clear
2:32 AM 64.4 °F - 62.6 °F 94% 29.88 in 10.0 mi North 4.6 mph - N/A   Clear
2:51 AM 64.4 °F - 62.6 °F 94% 29.87 in 10.0 mi Calm Calm - N/A   Clear
3:12 AM 64.4 °F - 62.6 °F 94% 29.87 in 10.0 mi Calm Calm - N/A   Clear
3:32 AM 64.4 °F - 62.6 °F 94% 29.87 in 10.0 mi North 3.5 mph - N/A   Clear
3:51 AM 64.4 °F - 62.6 °F 94% 29.87 in 10.0 mi Calm Calm - N/A   Clear
4:12 AM 64.4 °F - 62.6 °F 94% 29.88 in 10.0 mi North 3.5 mph - N/A   Clear
4:31 AM 64.4 °F - 62.6 °F 94% 29.88 in 10.0 mi NNE 3.5 mph - N/A   Clear
4:52 AM 64.4 °F - 62.6 °F 94% 29.88 in 10.0 mi Calm Calm - N/A   Clear
5:12 AM 64.4 °F - 62.6 °F 94% 29.89 in 10.0 mi Calm Calm - N/A   Clear
5:31 AM 62.6 °F - 62.6 °F 100% 29.88 in 10.0 mi Calm Calm - N/A   Clear
5:52 AM 62.6 °F - 62.6 °F 100% 29.88 in 10.0 mi NNE 3.5 mph - N/A   Clear
6:12 AM 62.6 °F - 60.8 °F 94% 29.89 in 10.0 mi North 3.5 mph - N/A   Clear
6:31 AM 62.6 °F - 62.6 °F 100% 29.89 in 10.0 mi Calm Calm - N/A   Clear
6:52 AM 62.6 °F - 62.6 °F 100% 29.89 in 10.0 mi Calm Calm - N/A   Clear
7:12 AM 62.6 °F - 62.6 °F 100% 29.89 in 7.0 mi Calm Calm - N/A   Clear
7:31 AM 64.4 °F - 62.6 °F 94% 29.88 in 7.0 mi Calm Calm - N/A   Clear
7:52 AM 64.4 °F - 62.6 °F 94% 29.88 in 10.0 mi Calm Calm - N/A   Clear
8:12 AM 68.0 °F - 64.4 °F 88% 29.88 in 10.0 mi ENE 3.5 mph - N/A   Clear
8:31 AM 69.8 °F - 64.4 °F 83% 29.88 in 10.0 mi East 4.6 mph - N/A   Clear
8:52 AM 69.8 °F - 66.2 °F 88% 29.88 in 10.0 mi SE 6.9 mph - N/A   Clear
9:12 AM 71.6 °F - 66.2 °F 83% 29.89 in 10.0 mi SE 3.5 mph - N/A   Clear
9:31 AM 71.6 °F - 66.2 °F 83% 29.89 in 10.0 mi Calm Calm - N/A   Clear
9:52 AM 73.4 °F - 66.2 °F 78% 29.88 in 10.0 mi ESE 6.9 mph - N/A   Clear
10:12 AM 71.6 °F - 68.0 °F 88% 29.88 in 7.0 mi ESE 8.1 mph - N/A   Scattered Clouds
10:31 AM 71.6 °F - 68.0 °F 88% 29.87 in 7.0 mi ESE 6.9 mph - N/A   Mostly Cloudy
10:52 AM 73.4 °F - 68.0 °F 83% 29.87 in 7.0 mi SE 6.9 mph - N/A   Mostly Cloudy
11:12 AM 75.2 °F - 69.8 °F 83% 29.86 in 10.0 mi SSE 6.9 mph - N/A   Mostly Cloudy
11:32 AM 75.2 °F - 68.0 °F 78% 29.87 in 10.0 mi SSE 3.5 mph - N/A   Scattered Clouds
11:52 AM 75.2 °F - 68.0 °F 78% 29.86 in 10.0 mi ESE 5.8 mph - N/A   Scattered Clouds
12:12 PM 75.2 °F - 68.0 °F 78% 29.86 in 10.0 mi ESE 4.6 mph - N/A   Scattered Clouds
12:32 PM 78.8 °F - 68.0 °F 69% 29.87 in 10.0 mi SSE 4.6 mph - N/A   Scattered Clouds
12:52 PM 78.8 °F - 68.0 °F 69% 29.86 in 10.0 mi SE 3.5 mph - N/A   Scattered Clouds
1:12 PM 78.8 °F - 68.0 °F 69% 29.86 in 10.0 mi Calm Calm - N/A   Scattered Clouds
1:32 PM 80.6 °F 83.2 °F 68.0 °F 65% 29.87 in 10.0 mi West 3.5 mph - N/A   Scattered Clouds
1:52 PM 78.8 °F - 68.0 °F 69% 29.87 in 10.0 mi South 5.8 mph - N/A   Scattered Clouds
2:12 PM 80.6 °F 82.7 °F 66.2 °F 61% 29.87 in 10.0 mi Calm Calm - N/A   Scattered Clouds
2:32 PM 82.4 °F 84.6 °F 66.2 °F 58% 29.86 in 10.0 mi SSW 5.8 mph - N/A   Clear
2:52 PM 82.4 °F 84.6 °F 66.2 °F 58% 29.85 in 10.0 mi South 3.5 mph - N/A   Clear
3:12 PM 82.4 °F 84.6 °F 66.2 °F 58% 29.84 in 10.0 mi SSE 4.6 mph - N/A   Clear
3:32 PM 82.4 °F 84.6 °F 66.2 °F 58% 29.84 in 10.0 mi South 3.5 mph - N/A   Clear
3:52 PM 84.2 °F 86.6 °F 66.2 °F 55% 29.83 in 10.0 mi South 5.8 mph - N/A   Clear
4:12 PM 84.2 °F 86.6 °F 66.2 °F 55% 29.83 in 10.0 mi SSE 6.9 mph - N/A   Clear
4:32 PM 84.2 °F 86.6 °F 66.2 °F 55% 29.83 in 10.0 mi South 5.8 mph - N/A   Clear
4:52 PM 84.2 °F 86.6 °F 66.2 °F 55% 29.82 in 10.0 mi SSE 6.9 mph - N/A   Clear
5:12 PM 84.2 °F 86.6 °F 66.2 °F 55% 29.81 in 10.0 mi SSE 5.8 mph - N/A   Clear
5:32 PM 84.2 °F 87.3 °F 68.0 °F 58% 29.80 in 10.0 mi South 4.6 mph - N/A   Clear
5:52 PM 82.4 °F 85.4 °F 68.0 °F 62% 29.79 in 10.0 mi SSE 6.9 mph - N/A   Clear
6:12 PM 82.4 °F 85.4 °F 68.0 °F 62% 29.79 in 10.0 mi SSE 6.9 mph - N/A   Clear
6:32 PM 82.4 °F 85.4 °F 68.0 °F 62% 29.81 in 10.0 mi South 5.8 mph - N/A   Clear
6:52 PM 80.6 °F 83.2 °F 68.0 °F 65% 29.80 in 10.0 mi SSE 6.9 mph - N/A   Clear
7:11 PM 80.6 °F 83.2 °F 68.0 °F 65% 29.82 in 10.0 mi Calm Calm - N/A   Clear
7:32 PM 78.8 °F - 69.8 °F 74% 29.84 in 10.0 mi Calm Calm - N/A   Clear
7:52 PM 78.8 °F - 69.8 °F 74% 29.83 in 10.0 mi Calm Calm - N/A   Clear
8:11 PM 77.0 °F - 69.8 °F 78% 29.84 in 10.0 mi Calm Calm - N/A   Clear
8:32 PM 75.2 °F - 69.8 °F 83% 29.85 in 10.0 mi Calm Calm - N/A   Clear
8:52 PM 73.4 °F - 69.8 °F 88% 29.88 in 10.0 mi NNW 3.5 mph - N/A   Scattered Clouds
9:11 PM 73.4 °F - 69.8 °F 88% 29.88 in 10.0 mi North 4.6 mph - N/A   Mostly Cloudy
9:32 PM 73.4 °F - 69.8 °F 88% 29.87 in 10.0 mi ENE 5.8 mph - N/A   Scattered Clouds
9:52 PM 75.2 °F - 69.8 °F 83% 29.84 in 10.0 mi ESE 6.9 mph - N/A   Clear
10:11 PM 75.2 °F - 69.8 °F 83% 29.82 in 10.0 mi SE 9.2 mph - N/A   Clear
10:32 PM 73.4 °F - 69.8 °F 88% 29.83 in 10.0 mi South 4.6 mph - N/A   Clear
10:52 PM 75.2 °F - 69.8 °F 83% 29.82 in 10.0 mi South 6.9 mph - N/A   Clear
11:11 PM 73.4 °F - 69.8 °F 88% 29.81 in 10.0 mi South 5.8 mph - N/A   Clear
11:32 PM 73.4 °F - 68.0 °F 83% 29.79 in 10.0 mi SE 8.1 mph - N/A   Clear
11:52 PM 73.4 °F - 69.8 °F 88% 29.81 in 10.0 mi South 6.9 mph - N/A   Clear